Regional Weather Roundup
Issued by NWS Cleveland, OH

Home | Current Version | Previous Version | Graphics & Text | Print | Product List | Glossary On
Versions: 1 2 3 4 5 6 7 8 9 10 11 12 13 14 15 16 17 18 19 20 21 22 23 24 25 26 27 28 29 30 31 32 33 34 35 36 37 38 39 40 41 42 43 44 45 46 47 48 49 50
000
ASUS41 KCLE 242010
RWRCLE
OHIO REGIONAL WEATHER ROUNDUP
NATIONAL WEATHER SERVICE WILMINGTON, OH
400 PM EDT THU APR 24 2014

NOTE: "FAIR" INDICATES FEW OR NO CLOUDS BELOW 12,000 FEET WITH NO
SIGNIFICANT WEATHER AND/OR OBSTRUCTIONS TO VISIBILITY.

OHZ001>008-015>018-024>027-034-035-043-044-242100-
   NORTHWEST OHIO

CITY           SKY/WX    TMP DP  RH WIND       PRES   REMARKS
DEFIANCE       CLOUDY    59  23  25 E15G21    30.00F
FINDLAY        PTSUNNY   58  23  26 E10       30.00F
TOLEDO EXPRESS MOSUNNY   56  20  24 E15G24    30.03F
TOLEDO METCALF PTSUNNY   54  26  34 NE12      30.05F
LIMA           PTSUNNY   61  24  24 E12       29.99F
$$

OHZ009>014-019>023-028>033-038-089-242100-
   NORTHEAST OHIO

CITY           SKY/WX    TMP DP  RH WIND       PRES   REMARKS
CLE-HOPKINS    PTSUNNY   54  22  28 NE16      30.08F
CLE-LAKEFRONT  MOSUNNY   48  26  42 NE18G24   30.05F
CUY CO. ARPT   PTSUNNY   52  21  30 NE17      30.05F
LORAIN-ELYRIA  MOSUNNY   57  23  26 NE13      30.05S
ASHTABULA      SUNNY     53  20  27 N8        30.07F
AKRON-CANTON   PTSUNNY   57  16  20 VRB6      30.03F
WOOSTER        SUNNY     57  21  24 SE7       30.03F
MANSFIELD      MOSUNNY   56  22  26 E10G16    30.03F
YOUNGSTOWN     MOSUNNY   58  17  20 N7        30.04F
$$

OHZ042-051>053-060>062-070>072-077>081-242100-
  SOUTHWEST OHIO

CITY           SKY/WX    TMP DP  RH WIND       PRES   REMARKS
CINC-COVINGTON PTSUNNY   64  30  27 SE16      29.94F
CINC-LUNKEN    MOSUNNY   63  28  26 SE10G20   29.96F
HAMILTON       MOSUNNY   65  25  22 VRB7      29.96F
DAYTON         CLOUDY    62  22  21 SE14      29.97F
WRIGHT-PAT AFB PTSUNNY   63  19  18 SE12      29.97F
DAYTON GENERAL PTSUNNY   62  24  23 SE10      29.95F
WILMINGTON     MOSUNNY   62  18  18 E12       29.96F
$$

OHZ036-037-039>041-045>050-054>059-063>069-073>076-082>088-242100-
  CENTRAL AND SOUTHEAST OHIO

CITY           SKY/WX    TMP DP  RH WIND       PRES   REMARKS
COLUMBUS       PTSUNNY   62  18  18 VRB5G16   30.00F
OSU AIRPORT    CLOUDY    60  20  21 SE9G17    30.00F
BOLTON FIELD   PTSUNNY   61  21  21 CALM      30.00F
RICKENBACK AFB PTSUNNY   64   6  10 E7        29.99F
NEWARK         MOSUNNY   60  19  20 VRB6      30.01F
MARION         PTSUNNY   58  21  24 SE10      30.01F
LANCASTER      PTSUNNY   62  18  18 E9        30.00F
ZANESVILLE     MOSUNNY   60  18  19 CALM      30.02F
NEW PHILLY     SUNNY     59  16  18 VRB5      30.03F
$$



USA.gov is the U.S. government's official web portal to all federal, state and local government web resources and services.